[[{"header":{"parameterUnit":"m.s-1","parameterCategory":1,"la1":30.2991,"la2":30.254,"lo1":-89.0895,"lo2":-89.0444,"dy":0.0017,"dx":0.0017,"nx":28,"ny":28,"refTime":"2025-04-07T09:00:00:Z","depth":0,"parameterNumber":2,"parameterNumberName":"U-component_of_WINDS"},"data":[0,0,0,0,0,0,0,0,0,0,0,0,0,0,0,0,0,0,0,0,0,0,0,0,0,0,0,0,0,0,0,0,0,0,0,0,0,0,0,0,0,0,0,0,0,0,0,0,0,0,0,0,0,0,0,0,0,0,0.27,0.2701,0,0.2761,0.2762,0.2763,0.2801,0.2801,0.2801,0.2801,0.2864,0.2865,0.2866,0,0,0,0,0,0,0,0,0,0,0,0,0,0.2616,0.2617,0.27,0.2701,0.2701,0.2761,0.2762,0.2763,0.2801,0.2801,0.2801,0.2801,0.2863,0.2865,0.2867,0,0,0,0,0,0,0,0,0,0,0,0,0,0.2662,0.2618,0.27,0.2727,0.2731,0.2761,0.2762,0.2763,0.2801,0.2801,0.2801,0.2801,0.2862,0.2865,0.2867,0.2874,0,0,0.2874,0.2874,0,0,0,0,0,0,0,0,0.266,0.2665,0.2723,0.2726,0.2729,0.2774,0.2755,0.28,0.28,0.2774,0.2801,0.2802,0.2833,0.2838,0.2849,0.2877,0.288,0.2874,0.2875,0.2876,0.2877,0,0,0,0,0,0,0,0.2656,0.2663,0.2724,0.2723,0.2727,0.2737,0.2744,0.2764,0.2801,0.2776,0.2779,0.2786,0.2835,0.2847,0.285,0.2881,0.2874,0.2876,0.2877,0.2878,0.292,0.2919,0,0,0,0,0,0,0.2649,0.266,0.2722,0.2726,0.2694,0.2738,0.2746,0.2759,0.2801,0.2808,0.2786,0.2788,0.2843,0.2848,0.2853,0.2865,0.2876,0.2878,0.2879,0.292,0.292,0.2919,0,0,0,0,0,0,0.2647,0.2654,0.272,0.2694,0.2703,0.2739,0.2754,0.276,0.2771,0.2808,0.2815,0.279,0.2843,0.285,0.2869,0.2868,0.2879,0.2881,0.292,0.292,0.292,0.2889,0,0,0,0,0,0,0.2644,0.2653,0.2656,0.2694,0.2704,0.2735,0.2754,0.2761,0.2775,0.2778,0.2814,0.2821,0.2844,0.2865,0.2871,0.2871,0.2883,0.292,0.292,0.292,0.2891,0.2888,0.2886,0,0,0,0,0,0.2641,0.2645,0.2656,0.2663,0.2709,0.2734,0.274,0.2767,0.2775,0.2779,0.2802,0.282,0.2867,0.2867,0.2874,0.2874,0.2921,0.292,0.292,0.2892,0.2888,0.2886,0,0,0,0,0,0,0.2605,0.265,0.2663,0.2679,0.2703,0.2741,0.2746,0.2763,0.2785,0.2787,0.2819,0.2827,0.2843,0.2861,0.286,0.2885,0.2896,0.2897,0.2872,0.287,0.2867,0.2863,0.2885,0,0,0,0,0,0.2599,0.2617,0.2655,0.2665,0.2676,0.2709,0.2721,0.274,0.2766,0.2776,0.2801,0.2825,0.2846,0.2859,0.288,0.2893,0.2902,0.2897,0.2895,0.2893,0.2893,0.2903,0.2901,0.2918,0.2918,0.2918,0,0,0.2587,0.2614,0.2622,0.2658,0.2679,0.2696,0.2717,0.2734,0.2748,0.2778,0.2798,0.2818,0.2847,0.2864,0.2873,0.2879,0.2891,0.2892,0.289,0.2892,0.2902,0.29,0.2899,0.2918,0.2918,0.2918,0,0,0.2574,0.2595,0.2607,0.2627,0.2658,0.268,0.2683,0.2719,0.2733,0.2754,0.2778,0.2794,0.2828,0.2849,0.2864,0.2859,0.2876,0.2865,0.2853,0.2862,0.2861,0.286,0.2859,0.2858,0.2865,0.2865,0.2865,0,0.2554,0.2581,0.261,0.2627,0.2642,0.2671,0.2684,0.2702,0.2738,0.2748,0.2755,0.28,0.2822,0.2845,0.2844,0.2854,0.2859,0.2861,0.2858,0.2858,0.2857,0.2857,0.2856,0.2864,0.2864,0.2864,0.2864,0,0.2557,0.2575,0.2581,0.2616,0.2632,0.2646,0.2677,0.269,0.2708,0.2729,0.275,0.2777,0.2805,0.2812,0.2828,0.2837,0.284,0.2852,0.2864,0.2854,0.2854,0.2854,0.2862,0.2862,0.2863,0.2863,0,0,0.2522,0.2573,0.2575,0.2592,0.2629,0.2644,0.266,0.2687,0.2698,0.2722,0.2736,0.2765,0.2777,0.2794,0.2814,0.2822,0.2818,0.2833,0.2835,0.283,0.283,0.282,0.282,0.2829,0.2829,0.2829,0.2827,0,0.2514,0.2544,0.2571,0.2591,0.2609,0.2638,0.2652,0.2676,0.2697,0.2715,0.2738,0.2758,0.2772,0.2783,0.2792,0.2816,0.2818,0.2817,0.2843,0.2844,0.2835,0.282,0.281,0.2806,0.2827,0.2827,0.2827,0,0.2509,0.2533,0.2555,0.2592,0.26,0.2612,0.264,0.2657,0.2686,0.27,0.272,0.2741,0.2759,0.2769,0.2796,0.2794,0.2807,0.282,0.2821,0.2824,0.2835,0.2823,0.2806,0.2805,0.2828,0.2828,0.2828,0,0.2483,0.252,0.2539,0.2552,0.2595,0.2603,0.2621,0.265,0.2665,0.2689,0.2699,0.2725,0.2739,0.2759,0.2787,0.2792,0.2811,0.2823,0.2823,0.2823,0.2826,0.2826,0.2811,0.2833,0.2833,0.2833,0.2833,0,0.2472,0.2484,0.2527,0.2539,0.2554,0.2585,0.2599,0.262,0.2646,0.2662,0.2688,0.2702,0.2738,0.2757,0.2778,0.2797,0.2803,0.2816,0.2822,0.2814,0.2812,0.2823,0.2824,0.2833,0.2833,0.2833,0.2833,0,0.2444,0.2474,0.2496,0.2535,0.2545,0.2554,0.2588,0.26,0.2623,0.2643,0.2649,0.2684,0.2708,0.2738,0.2771,0.2786,0.2802,0.2811,0.2793,0.2796,0.2795,0.2795,0.2787,0.2788,0.2809,0.2809,0.2809,0,0.2436,0.2446,0.2486,0.2499,0.2517,0.2537,0.2553,0.2584,0.26,0.2634,0.2642,0.2668,0.269,0.2727,0.2756,0.2781,0.2791,0.2786,0.2795,0.2787,0.2791,0.2791,0.2792,0.2784,0.2784,0.2783,0.2783,0,0.2417,0.2431,0.2453,0.248,0.2498,0.2521,0.2545,0.2554,0.2591,0.2607,0.2632,0.2649,0.2683,0.2709,0.2738,0.2758,0.2776,0.278,0.2782,0.2774,0.2763,0.277,0.2787,0.278,0.278,0.2781,0.2781,0.2781,0.2399,0.241,0.2441,0.2464,0.2486,0.2508,0.2522,0.2546,0.2568,0.2598,0.2615,0.264,0.267,0.2711,0.273,0.275,0.2757,0.2759,0.2759,0.2759,0.2757,0.276,0.2755,0.2755,0.2755,0.2755,0.2755,0,0.2383,0.2404,0.2425,0.2458,0.2477,0.2494,0.2522,0.2536,0.2558,0.2584,0.2605,0.2634,0.266,0.2691,0.2718,0.2728,0.2738,0.2734,0.2734,0.2738,0.2749,0.2745,0.2726,0.2726,0.2726,0.2726,0.2726,0.2726,0.2376,0.2396,0.2414,0.2445,0.2466,0.2491,0.2505,0.2526,0.2547,0.2579,0.26,0.262,0.2648,0.2678,0.2702,0.2711,0.272,0.2714,0.2725,0.2735,0.2737,0.274,0.2736,0.2716,0.2716,0.2713,0.2713,0.2713]},{"header":{"parameterUnit":"m.s-1","parameterCategory":1,"la1":30.2991,"la2":30.254,"lo1":-89.0895,"lo2":-89.0444,"dy":0.0017,"dx":0.0017,"nx":28,"ny":28,"refTime":"2025-04-07T09:00:00:Z","depth":0,"parameterNumber":3,"parameterNumberName":"V-component_of_WINDS"},"data":[0,0,0,0,0,0,0,0,0,0,0,0,0,0,0,0,0,0,0,0,0,0,0,0,0,0,0,0,0,0,0,0,0,0,0,0,0,0,0,0,0,0,0,0,0,0,0,0,0,0,0,0,0,0,0,0,0,0,-3.7236,-3.7236,0,-3.7285,-3.7286,-3.7287,-3.7301,-3.73,-3.73,-3.73,-3.7347,-3.7349,-3.735,0,0,0,0,0,0,0,0,0,0,0,0,0,-3.7151,-3.7153,-3.7236,-3.7236,-3.7237,-3.7285,-3.7286,-3.7287,-3.7301,-3.73,-3.73,-3.73,-3.7347,-3.7348,-3.735,0,0,0,0,0,0,0,0,0,0,0,0,0,-3.7193,-3.7153,-3.7236,-3.725,-3.7252,-3.7285,-3.7286,-3.7287,-3.7301,-3.73,-3.73,-3.73,-3.7346,-3.7348,-3.735,-3.7372,0,0,-3.7357,-3.7358,0,0,0,0,0,0,0,0,-3.719,-3.7196,-3.7247,-3.7249,-3.7251,-3.7287,-3.7273,-3.7315,-3.7301,-3.7282,-3.73,-3.7299,-3.7327,-3.7331,-3.7341,-3.7374,-3.7376,-3.7357,-3.7359,-3.736,-3.736,0,0,0,0,0,0,0,-3.7188,-3.7194,-3.7255,-3.7248,-3.725,-3.7253,-3.7259,-3.7281,-3.7306,-3.7284,-3.7285,-3.7291,-3.7328,-3.7339,-3.7342,-3.7377,-3.7357,-3.7359,-3.7361,-3.7362,-3.7433,-3.7434,0,0,0,0,0,0,-3.7183,-3.7191,-3.7254,-3.7257,-3.7219,-3.7255,-3.7261,-3.7275,-3.7306,-3.731,-3.7291,-3.7291,-3.7335,-3.7339,-3.7344,-3.7373,-3.736,-3.7362,-3.7363,-3.7433,-3.7433,-3.7434,0,0,0,0,0,0,-3.7181,-3.7188,-3.7252,-3.7225,-3.7233,-3.7257,-3.7273,-3.7277,-3.7287,-3.7311,-3.7316,-3.7298,-3.7335,-3.7341,-3.7366,-3.7375,-3.7363,-3.7365,-3.7432,-3.7433,-3.7433,-3.743,0,0,0,0,0,0,-3.7178,-3.7187,-3.7196,-3.7225,-3.7234,-3.7273,-3.7273,-3.7278,-3.7292,-3.7292,-3.7319,-3.7323,-3.7335,-3.7362,-3.7368,-3.7377,-3.7367,-3.7431,-3.7432,-3.7433,-3.743,-3.7431,-3.7432,0,0,0,0,0,-3.7175,-3.7192,-3.7197,-3.7204,-3.7246,-3.7274,-3.7279,-3.7294,-3.7292,-3.7301,-3.7317,-3.7322,-3.7373,-3.7365,-3.7371,-3.7382,-3.7431,-3.7432,-3.7433,-3.7429,-3.743,-3.7432,0,0,0,0,0,0,-3.7162,-3.7196,-3.7201,-3.7228,-3.7248,-3.7276,-3.7288,-3.7295,-3.7315,-3.7315,-3.7331,-3.7337,-3.7362,-3.7374,-3.7365,-3.7405,-3.7402,-3.7404,-3.7396,-3.7398,-3.7399,-3.7396,-3.7369,0,0,0,0,0,-3.7162,-3.7183,-3.7211,-3.7232,-3.7242,-3.7263,-3.7276,-3.7286,-3.7307,-3.7315,-3.7333,-3.7352,-3.7373,-3.7386,-3.7406,-3.7431,-3.7438,-3.7442,-3.7443,-3.7444,-3.7446,-3.7462,-3.7464,-3.7438,-3.7438,-3.7438,0,0,-3.7163,-3.7184,-3.7196,-3.723,-3.7247,-3.7268,-3.727,-3.7292,-3.7307,-3.7318,-3.7344,-3.7357,-3.738,-3.7406,-3.7418,-3.7417,-3.7455,-3.7445,-3.7446,-3.7447,-3.7463,-3.7466,-3.7468,-3.7439,-3.7438,-3.7438,0,0,-3.7175,-3.7193,-3.7213,-3.7231,-3.7257,-3.7271,-3.7276,-3.7304,-3.7314,-3.734,-3.735,-3.7368,-3.7403,-3.7419,-3.7432,-3.7453,-3.7458,-3.7459,-3.7465,-3.748,-3.7482,-3.7484,-3.7493,-3.7496,-3.7461,-3.7461,-3.7461,0,-3.7172,-3.7205,-3.7222,-3.7244,-3.7259,-3.7272,-3.7293,-3.7308,-3.7339,-3.7349,-3.7348,-3.7394,-3.7409,-3.744,-3.7446,-3.7455,-3.7462,-3.7456,-3.7481,-3.7483,-3.7485,-3.7493,-3.7496,-3.7461,-3.7461,-3.7461,-3.7461,0,-3.72,-3.7223,-3.7236,-3.7268,-3.7285,-3.7306,-3.7326,-3.7341,-3.735,-3.7364,-3.7392,-3.7412,-3.7437,-3.7445,-3.7453,-3.7478,-3.7476,-3.7477,-3.7474,-3.7487,-3.7495,-3.7499,-3.7461,-3.7461,-3.7461,-3.7461,0,0,-3.7204,-3.7247,-3.7252,-3.7268,-3.7299,-3.7316,-3.7338,-3.7365,-3.7378,-3.7399,-3.7418,-3.7448,-3.745,-3.7465,-3.7475,-3.7489,-3.7506,-3.7489,-3.7489,-3.7492,-3.7536,-3.7535,-3.7539,-3.751,-3.751,-3.7511,-3.7534,0,-3.7221,-3.7262,-3.7279,-3.7313,-3.7334,-3.7348,-3.7367,-3.7388,-3.7403,-3.7423,-3.7439,-3.7461,-3.7461,-3.747,-3.7484,-3.7501,-3.7515,-3.7499,-3.7528,-3.7529,-3.7523,-3.7543,-3.7542,-3.7563,-3.7537,-3.7538,-3.7538,0,-3.7245,-3.7269,-3.7305,-3.7336,-3.7346,-3.7363,-3.739,-3.7409,-3.7433,-3.7443,-3.7461,-3.7471,-3.7495,-3.749,-3.7524,-3.7513,-3.7525,-3.7535,-3.7537,-3.754,-3.7535,-3.7548,-3.757,-3.7574,-3.7543,-3.7543,-3.7543,0,-3.7246,-3.7287,-3.7315,-3.7327,-3.7363,-3.7375,-3.7391,-3.7415,-3.7431,-3.7454,-3.7464,-3.7489,-3.7503,-3.7522,-3.7538,-3.7533,-3.757,-3.7567,-3.7579,-3.7579,-3.7587,-3.7586,-3.7612,-3.7594,-3.7593,-3.7593,-3.7593,0,-3.7263,-3.7285,-3.7316,-3.7333,-3.7358,-3.7377,-3.7402,-3.7418,-3.744,-3.746,-3.7472,-3.7491,-3.7511,-3.7532,-3.7545,-3.7572,-3.7577,-3.7586,-3.7589,-3.7585,-3.7584,-3.7594,-3.7594,-3.7594,-3.7594,-3.7594,-3.7594,0,-3.7268,-3.7289,-3.732,-3.7353,-3.7362,-3.7379,-3.7407,-3.7424,-3.744,-3.7465,-3.7472,-3.7497,-3.7523,-3.7542,-3.7574,-3.7583,-3.7612,-3.7614,-3.7604,-3.7606,-3.7618,-3.7617,-3.7651,-3.7658,-3.7634,-3.7634,-3.7634,0,-3.7277,-3.7295,-3.733,-3.7346,-3.7362,-3.7386,-3.7403,-3.7423,-3.744,-3.7471,-3.7484,-3.7511,-3.7534,-3.7575,-3.7595,-3.7621,-3.7625,-3.7635,-3.7628,-3.7625,-3.7626,-3.7625,-3.7628,-3.7636,-3.7636,-3.7636,-3.7636,0,-3.7293,-3.7303,-3.7328,-3.7357,-3.7377,-3.7401,-3.7424,-3.7436,-3.746,-3.7478,-3.7506,-3.7524,-3.7559,-3.7586,-3.7614,-3.7629,-3.7637,-3.7639,-3.7643,-3.764,-3.7633,-3.7638,-3.7608,-3.7638,-3.7637,-3.7637,-3.7637,-3.7637,-3.7301,-3.7318,-3.7347,-3.7374,-3.7395,-3.7417,-3.7435,-3.7455,-3.7479,-3.751,-3.752,-3.7549,-3.7575,-3.7614,-3.7629,-3.7652,-3.7652,-3.7658,-3.7659,-3.7661,-3.7662,-3.763,-3.7657,-3.7657,-3.7657,-3.7657,-3.7657,0,-3.7318,-3.7338,-3.7363,-3.7397,-3.7419,-3.7427,-3.7453,-3.7471,-3.7497,-3.7521,-3.7544,-3.7577,-3.7604,-3.7627,-3.7655,-3.7669,-3.7673,-3.7676,-3.7675,-3.7679,-3.766,-3.7654,-3.7672,-3.7672,-3.7672,-3.7672,-3.7672,-3.7672,-3.7329,-3.736,-3.7374,-3.7415,-3.7434,-3.7464,-3.7479,-3.75,-3.752,-3.7556,-3.758,-3.7595,-3.7619,-3.765,-3.7675,-3.7681,-3.7691,-3.7693,-3.77,-3.7681,-3.768,-3.7678,-3.7673,-3.7695,-3.7695,-3.7717,-3.7718,-3.7718]}]]